Time,TemperatureF,DewpointF,PressureIn,WindDirection,WindDirectionDegrees,WindSpeedMPH,WindSpeedGustMPH,Humidity,HourlyPrecipIn,Conditions,Clouds,dailyrainin,SoftwareType,DateUTC
2013-08-26 00:00:00,70.0,62.4,30.11,NE,45,0.0,0.0,77,0.00,CLR,,0.00,WeatherDisplay:10.37,2013-08-26 07:00:00,
2013-08-26 00:05:00,69.9,62.4,30.11,NE,45,0.0,0.0,77,0.00,CLR,,0.00,WeatherDisplay:10.37,2013-08-26 07:05:00,
2013-08-26 00:11:00,69.8,62.3,30.11,NE,45,0.0,0.0,77,0.00,CLR,,0.00,WeatherDisplay:10.37,2013-08-26 07:11:00,
2013-08-26 00:21:00,69.6,62.1,30.11,NE,45,0.0,0.0,77,0.00,CLR,,0.00,WeatherDisplay:10.37,2013-08-26 07:21:00,
2013-08-26 00:31:00,69.6,61.7,30.11,NE,45,0.0,0.0,76,0.00,CLR,,0.00,WeatherDisplay:10.37,2013-08-26 07:31:00,
2013-08-26 00:41:00,69.6,61.7,30.10,NE,45,0.0,0.0,76,0.00,CLR,,0.00,WeatherDisplay:10.37,2013-08-26 07:41:00,
2013-08-26 00:51:00,69.6,61.7,30.11,NE,45,0.0,0.0,76,0.00,CLR,,0.00,WeatherDisplay:10.37,2013-08-26 07:51:00,
2013-08-26 01:00:00,69.6,61.7,30.11,NE,45,0.0,0.0,76,0.00,CLR,,0.00,WeatherDisplay:10.37,2013-08-26 08:00:00,
2013-08-26 01:05:00,69.6,61.7,30.11,NE,45,0.0,0.0,76,0.00,CLR,,0.00,WeatherDisplay:10.37,2013-08-26 08:05:00,
2013-08-26 01:11:00,69.6,61.7,30.10,NE,45,0.0,0.0,76,0.00,CLR,,0.00,WeatherDisplay:10.37,2013-08-26 08:11:00,
2013-08-26 01:21:00,69.6,62.1,30.10,NE,45,0.0,0.0,77,0.00,CLR,,0.00,WeatherDisplay:10.37,2013-08-26 08:21:00,
2013-08-26 01:31:00,69.4,61.9,30.10,NE,45,0.0,0.0,77,0.00,CLR,,0.00,WeatherDisplay:10.37,2013-08-26 08:31:00,
2013-08-26 01:41:00,69.4,61.9,30.10,NE,45,0.0,0.0,77,0.00,CLR,,0.00,WeatherDisplay:10.37,2013-08-26 08:41:00,
2013-08-26 01:51:00,69.4,61.9,30.10,NE,45,0.0,0.0,77,0.00,CLR,,0.00,WeatherDisplay:10.37,2013-08-26 08:51:00,
2013-08-26 02:00:00,69.4,61.9,30.10,NE,45,0.0,0.0,77,0.00,CLR,,0.00,WeatherDisplay:10.37,2013-08-26 09:00:00,
2013-08-26 02:05:00,69.4,61.9,30.10,NE,45,0.0,0.0,77,0.00,CLR,,0.00,WeatherDisplay:10.37,2013-08-26 09:05:00,
2013-08-26 02:11:00,69.4,61.9,30.10,NE,45,0.0,0.0,77,0.00,CLR,,0.00,WeatherDisplay:10.37,2013-08-26 09:11:00,
2013-08-26 02:21:00,69.4,61.9,30.10,NE,45,0.0,0.0,77,0.00,CLR,,0.00,WeatherDisplay:10.37,2013-08-26 09:21:00,
2013-08-26 02:31:00,69.4,61.9,30.10,NE,45,0.0,0.0,77,0.00,CLR,,0.00,WeatherDisplay:10.37,2013-08-26 09:31:00,
2013-08-26 02:41:00,69.4,62.3,30.10,NE,45,0.0,0.0,78,0.00,CLR,,0.00,WeatherDisplay:10.37,2013-08-26 09:41:00,
2013-08-26 02:51:00,69.4,62.3,30.10,NE,45,0.0,0.0,78,0.00,CLR,,0.00,WeatherDisplay:10.37,2013-08-26 09:51:00,
2013-08-26 03:00:00,69.4,62.6,30.10,NE,45,0.0,0.0,79,0.00,CLR,,0.00,WeatherDisplay:10.37,2013-08-26 10:00:00,
2013-08-26 03:05:00,69.3,62.5,30.10,NE,45,0.0,0.0,79,0.00,CLR,,0.00,WeatherDisplay:10.37,2013-08-26 10:05:00,
2013-08-26 03:11:00,69.4,62.6,30.10,NE,45,0.0,0.0,79,0.00,CLR,,0.00,WeatherDisplay:10.37,2013-08-26 10:11:00,
2013-08-26 03:21:00,69.3,62.8,30.10,NE,45,0.0,0.0,80,0.00,CLR,,0.00,WeatherDisplay:10.37,2013-08-26 10:21:00,
2013-08-26 03:31:00,69.3,62.8,30.10,NE,45,0.0,0.0,80,0.00,CLR,,0.00,WeatherDisplay:10.37,2013-08-26 10:31:00,
2013-08-26 03:35:00,69.3,62.8,30.10,NE,45,0.0,0.0,80,0.00,CLR,,0.00,WeatherDisplay:10.37,2013-08-26 10:35:00,
2013-08-26 03:41:00,69.3,62.8,30.09,NE,45,0.0,0.0,80,0.00,CLR,,0.00,WeatherDisplay:10.37,2013-08-26 10:41:00,
2013-08-26 03:51:00,69.3,62.8,30.10,NE,45,0.0,0.0,80,0.00,CLR,,0.00,WeatherDisplay:10.37,2013-08-26 10:51:00,
2013-08-26 04:00:00,69.1,62.7,30.10,NE,45,0.0,0.0,80,0.00,CLR,,0.00,WeatherDisplay:10.37,2013-08-26 11:00:00,
2013-08-26 04:05:00,69.3,62.8,30.10,NE,45,0.0,0.0,80,0.00,CLR,,0.00,WeatherDisplay:10.37,2013-08-26 11:05:00,
2013-08-26 04:11:00,69.3,62.8,30.10,NE,45,0.0,0.0,80,0.00,CLR,,0.00,WeatherDisplay:10.37,2013-08-26 11:11:00,
2013-08-26 04:21:00,69.3,62.8,30.10,NE,45,0.0,0.0,80,0.00,CLR,,0.00,WeatherDisplay:10.37,2013-08-26 11:21:00,
2013-08-26 04:31:00,69.4,63.0,30.10,NE,45,0.0,0.0,80,0.00,CLR,,0.00,WeatherDisplay:10.37,2013-08-26 11:31:00,
2013-08-26 04:41:00,69.3,62.8,30.10,NE,45,0.0,0.0,80,0.00,CLR,,0.00,WeatherDisplay:10.37,2013-08-26 11:41:00,
2013-08-26 04:51:00,69.1,62.6,30.10,NE,45,0.0,0.0,80,0.00,CLR,,0.00,WeatherDisplay:10.37,2013-08-26 11:51:00,
2013-08-26 05:00:00,69.1,62.6,30.10,NE,45,0.0,0.0,80,0.00,CLR,,0.00,WeatherDisplay:10.37,2013-08-26 12:00:00,
2013-08-26 05:05:00,69.0,62.6,30.10,NE,45,0.0,0.0,80,0.00,CLR,,0.00,WeatherDisplay:10.37,2013-08-26 12:05:00,
2013-08-26 05:11:00,68.9,62.5,30.10,NE,45,0.0,0.0,80,0.00,CLR,,0.00,WeatherDisplay:10.37,2013-08-26 12:11:00,
2013-08-26 05:21:00,68.9,62.8,30.10,NE,45,0.0,0.0,81,0.00,CLR,,0.00,WeatherDisplay:10.37,2013-08-26 12:21:00,
2013-08-26 05:31:00,68.7,62.7,30.10,NE,45,0.0,0.0,81,0.00,CLR,,0.00,WeatherDisplay:10.37,2013-08-26 12:31:00,
2013-08-26 05:41:00,68.7,62.7,30.10,NE,45,0.0,0.0,81,0.00,CLR,,0.00,WeatherDisplay:10.37,2013-08-26 12:41:00,
2013-08-26 05:51:00,68.7,62.7,30.10,NE,45,0.0,0.0,81,0.00,RA,,0.02,WeatherDisplay:10.37,2013-08-26 12:51:00,
2013-08-26 06:00:00,68.5,62.5,30.10,NE,45,0.0,0.0,81,0.00,CLR,,0.02,WeatherDisplay:10.37,2013-08-26 13:00:00,
2013-08-26 06:05:00,68.5,62.5,30.10,NE,45,0.0,0.0,81,0.00,CLR,,0.02,WeatherDisplay:10.37,2013-08-26 13:05:00,
2013-08-26 06:11:00,68.5,62.5,30.10,NE,45,0.0,0.0,81,0.00,CLR,,0.02,WeatherDisplay:10.37,2013-08-26 13:11:00,
2013-08-26 06:21:00,68.5,62.8,30.11,NE,45,0.0,0.0,82,0.00,CLR,,0.02,WeatherDisplay:10.37,2013-08-26 13:21:00,
2013-08-26 06:31:00,68.5,62.8,30.11,South,186,0.0,0.0,82,0.00,CLR,,0.02,WeatherDisplay:10.37,2013-08-26 13:31:00,
2013-08-26 06:41:00,68.5,62.5,30.11,SSW,202,0.0,0.0,81,0.00,CLR,,0.02,WeatherDisplay:10.37,2013-08-26 13:41:00,
2013-08-26 06:51:00,68.6,62.6,30.11,SSW,202,0.0,0.0,81,0.00,CLR,,0.02,WeatherDisplay:10.37,2013-08-26 13:51:00,
2013-08-26 07:00:00,68.7,62.7,30.11,SSW,202,0.0,0.0,81,0.00,CLR,,0.02,WeatherDisplay:10.37,2013-08-26 14:00:00,
2013-08-26 07:05:00,68.8,62.4,30.11,SW,215,0.0,0.0,80,0.00,CLR,,0.02,WeatherDisplay:10.37,2013-08-26 14:05:00,
2013-08-26 07:11:00,68.9,62.5,30.11,NW,304,0.0,0.0,80,0.00,CLR,,0.02,WeatherDisplay:10.37,2013-08-26 14:11:00,
2013-08-26 07:21:00,69.3,62.8,30.11,NNW,338,0.0,0.0,80,0.00,CLR,,0.02,WeatherDisplay:10.37,2013-08-26 14:21:00,
2013-08-26 07:31:00,69.6,62.8,30.12,NNW,338,0.0,0.0,79,0.00,CLR,,0.02,WeatherDisplay:10.37,2013-08-26 14:31:00,
2013-08-26 07:35:00,69.7,62.9,30.12,NNW,338,0.0,0.0,79,0.00,CLR,,0.02,WeatherDisplay:10.37,2013-08-26 14:35:00,
2013-08-26 07:41:00,70.0,62.8,30.12,NNW,338,0.0,0.0,78,0.00,CLR,,0.02,WeatherDisplay:10.37,2013-08-26 14:41:00,
2013-08-26 07:51:00,70.6,63.1,30.12,NNW,346,0.0,0.0,77,0.00,CLR,,0.02,WeatherDisplay:10.37,2013-08-26 14:51:00,
2013-08-26 08:00:00,71.2,62.9,30.12,North,0,0.0,0.0,75,0.00,CLR,,0.02,WeatherDisplay:10.37,2013-08-26 15:00:00,
2013-08-26 08:05:00,71.7,63.0,30.12,NNE,26,0.0,0.0,74,0.00,CLR,,0.02,WeatherDisplay:10.37,2013-08-26 15:05:00,
2013-08-26 08:11:00,72.1,63.0,30.12,ENE,77,1.0,4.0,73,0.00,CLR,,0.02,WeatherDisplay:10.37,2013-08-26 15:11:00,
2013-08-26 08:21:00,73.0,62.6,30.12,East,82,0.0,0.0,70,0.00,CLR,,0.02,WeatherDisplay:10.37,2013-08-26 15:21:00,
2013-08-26 08:31:00,73.8,62.5,30.12,ENE,68,0.0,0.0,68,0.00,CLR,,0.02,WeatherDisplay:10.37,2013-08-26 15:31:00,
2013-08-26 08:41:00,74.7,62.5,30.12,ENE,68,0.0,0.0,66,0.00,CLR,,0.02,WeatherDisplay:10.37,2013-08-26 15:41:00,
2013-08-26 08:51:00,75.0,62.5,30.12,ESE,104,0.0,0.0,65,0.00,CLR,,0.02,WeatherDisplay:10.37,2013-08-26 15:51:00,
2013-08-26 09:00:00,76.1,62.6,30.13,ESE,112,0.0,0.0,63,0.00,CLR,,0.02,WeatherDisplay:10.37,2013-08-26 16:00:00,
2013-08-26 09:05:00,76.6,62.2,30.13,ESE,112,0.0,0.0,61,0.00,CLR,,0.02,WeatherDisplay:10.37,2013-08-26 16:05:00,
2013-08-26 09:11:00,76.8,62.8,30.13,ENE,58,0.0,0.0,62,0.00,CLR,,0.02,WeatherDisplay:10.37,2013-08-26 16:11:00,
2013-08-26 09:21:00,77.5,63.0,30.13,East,79,7.0,7.0,61,0.00,CLR,,0.02,WeatherDisplay:10.37,2013-08-26 16:21:00,
2013-08-26 09:31:00,78.5,63.9,30.13,ENE,75,0.0,0.0,61,0.00,CLR,,0.02,WeatherDisplay:10.37,2013-08-26 16:31:00,
2013-08-26 09:41:00,79.2,63.6,30.13,ENE,62,6.0,7.0,59,0.00,CLR,,0.02,WeatherDisplay:10.37,2013-08-26 16:41:00,
2013-08-26 09:51:00,79.7,64.1,30.13,ENE,68,2.0,3.0,59,0.00,CLR,,0.02,WeatherDisplay:10.37,2013-08-26 16:51:00,
2013-08-26 10:00:00,80.6,64.0,30.13,ENE,68,1.0,5.0,57,0.00,CLR,,0.02,WeatherDisplay:10.37,2013-08-26 17:00:00,
2013-08-26 10:05:00,81.3,64.6,30.13,East,95,3.0,5.0,57,0.00,CLR,,0.02,WeatherDisplay:10.37,2013-08-26 17:05:00,
2013-08-26 10:11:00,81.5,64.3,30.13,East,100,2.0,7.0,56,0.00,CLR,,0.02,WeatherDisplay:10.37,2013-08-26 17:11:00,
2013-08-26 10:21:00,82.4,64.6,30.13,East,86,0.0,0.0,55,0.00,CLR,,0.02,WeatherDisplay:10.37,2013-08-26 17:21:00,
2013-08-26 10:31:00,82.9,64.0,30.13,East,81,0.0,4.0,53,0.00,CLR,,0.02,WeatherDisplay:10.37,2013-08-26 17:31:00,
2013-08-26 10:41:00,83.5,64.0,30.13,ENE,71,2.0,7.0,52,0.00,CLR,,0.02,WeatherDisplay:10.37,2013-08-26 17:41:00,
2013-08-26 10:51:00,84.6,64.4,30.12,East,86,2.0,3.0,51,0.00,CLR,,0.02,WeatherDisplay:10.37,2013-08-26 17:51:00,
2013-08-26 11:00:00,85.1,64.4,30.12,SE,128,0.0,0.0,50,0.00,CLR,,0.02,WeatherDisplay:10.37,2013-08-26 18:00:00,
2013-08-26 11:05:00,85.4,63.5,30.12,SE,139,1.0,2.0,48,0.00,CLR,,0.02,WeatherDisplay:10.37,2013-08-26 18:05:00,
2013-08-26 11:11:00,85.6,63.1,30.12,ESE,117,2.0,3.0,47,0.00,CLR,,0.02,WeatherDisplay:10.37,2013-08-26 18:11:00,
2013-08-26 11:21:00,86.3,63.1,30.12,ENE,76,6.0,6.0,46,0.00,CLR,,0.02,WeatherDisplay:10.37,2013-08-26 18:21:00,
2013-08-26 11:31:00,87.1,62.5,30.12,ESE,102,0.0,5.0,44,0.00,CLR,,0.02,WeatherDisplay:10.37,2013-08-26 18:31:00,
2013-08-26 11:41:00,87.1,62.5,30.12,North,9,2.0,2.0,44,0.00,CLR,,0.02,WeatherDisplay:10.37,2013-08-26 18:41:00,
2013-08-26 11:51:00,87.4,62.8,30.11,East,100,1.0,3.0,44,0.00,CLR,,0.02,WeatherDisplay:10.37,2013-08-26 18:51:00,
2013-08-26 12:01:00,87.4,62.2,30.11,East,82,12.0,12.0,43,0.00,CLR,,0.02,WeatherDisplay:10.37,2013-08-26 19:01:00,
2013-08-26 12:11:00,87.6,62.4,30.11,East,80,8.0,8.0,43,0.00,CLR,,0.02,WeatherDisplay:10.37,2013-08-26 19:11:00,
2013-08-26 12:21:00,88.3,62.3,30.10,East,80,8.0,11.0,42,0.00,CLR,,0.02,WeatherDisplay:10.37,2013-08-26 19:21:00,
2013-08-26 12:31:00,88.9,62.2,30.10,East,83,0.0,11.0,41,0.00,CLR,,0.02,WeatherDisplay:10.37,2013-08-26 19:31:00,
2013-08-26 12:41:00,89.5,62.0,30.10,ENE,72,5.0,6.0,40,0.00,CLR,,0.02,WeatherDisplay:10.37,2013-08-26 19:41:00,
2013-08-26 12:51:00,90.7,62.3,30.09,ENE,60,0.0,7.0,39,0.00,CLR,,0.02,WeatherDisplay:10.37,2013-08-26 19:51:00,
2013-08-26 13:00:00,91.2,61.3,30.09,ENE,78,0.0,7.0,37,0.00,CLR,,0.02,WeatherDisplay:10.37,2013-08-26 20:00:00,
2013-08-26 13:05:00,91.6,62.4,30.09,ENE,76,3.0,12.0,38,0.00,CLR,,0.02,WeatherDisplay:10.37,2013-08-26 20:05:00,
2013-08-26 13:11:00,91.9,61.2,30.09,ESE,104,0.0,12.0,36,0.00,CLR,,0.02,WeatherDisplay:10.37,2013-08-26 20:11:00,
2013-08-26 13:21:00,92.8,61.1,30.08,ENE,75,2.0,7.0,35,0.00,CLR,,0.02,WeatherDisplay:10.37,2013-08-26 20:21:00,
2013-08-26 13:31:00,93.4,61.7,30.08,ENE,64,0.0,7.0,35,0.00,CLR,,0.02,WeatherDisplay:10.37,2013-08-26 20:31:00,
2013-08-26 13:41:00,93.9,61.3,30.07,ENE,65,0.0,7.0,34,0.00,CLR,,0.02,WeatherDisplay:10.37,2013-08-26 20:41:00,
2013-08-26 13:51:00,94.5,60.1,30.07,WSW,248,0.0,0.0,32,0.00,CLR,,0.02,WeatherDisplay:10.37,2013-08-26 20:51:00,
2013-08-26 14:00:00,94.3,59.9,30.07,WSW,248,1.0,5.0,32,0.00,CLR,,0.02,WeatherDisplay:10.37,2013-08-26 21:00:00,
2013-08-26 14:05:00,94.6,60.2,30.06,WSW,248,5.0,7.0,32,0.00,CLR,,0.02,WeatherDisplay:10.37,2013-08-26 21:05:00,
2013-08-26 14:11:00,94.6,60.2,30.06,WSW,248,9.0,9.0,32,0.00,CLR,,0.02,WeatherDisplay:10.37,2013-08-26 21:11:00,
2013-08-26 14:21:00,94.8,60.4,30.05,ENE,77,0.0,0.0,32,0.00,CLR,,0.02,WeatherDisplay:10.37,2013-08-26 21:21:00,
2013-08-26 14:31:00,94.8,59.5,30.05,WSW,248,3.0,3.0,31,0.00,CLR,,0.02,WeatherDisplay:10.37,2013-08-26 21:31:00,
2013-08-26 14:35:00,95.2,60.7,30.05,WSW,248,3.0,8.0,32,0.00,CLR,,0.02,WeatherDisplay:10.37,2013-08-26 21:35:00,
2013-08-26 14:41:00,95.4,59.9,30.05,WSW,248,5.0,8.0,31,0.00,CLR,,0.02,WeatherDisplay:10.37,2013-08-26 21:41:00,
2013-08-26 14:51:00,95.7,60.2,30.04,WSW,248,8.0,17.0,31,0.00,CLR,,0.02,WeatherDisplay:10.37,2013-08-26 21:51:00,
2013-08-26 15:00:00,95.8,60.3,30.04,WSW,248,1.0,18.0,31,0.00,CLR,,0.02,WeatherDisplay:10.37,2013-08-26 22:00:00,
2013-08-26 15:05:00,96.1,60.6,30.04,WSW,248,1.0,10.0,31,0.00,CLR,,0.02,WeatherDisplay:10.37,2013-08-26 22:05:00,
2013-08-26 15:11:00,95.9,60.4,30.04,WSW,248,0.0,2.0,31,0.00,CLR,,0.02,WeatherDisplay:10.37,2013-08-26 22:11:00,
2013-08-26 15:21:00,95.5,60.1,30.04,WSW,248,0.0,0.0,31,0.00,CLR,,0.02,WeatherDisplay:10.37,2013-08-26 22:21:00,
2013-08-26 15:31:00,95.5,60.1,30.03,WSW,248,0.0,0.0,31,0.00,CLR,,0.02,WeatherDisplay:10.37,2013-08-26 22:31:00,
2013-08-26 15:41:00,95.5,60.1,30.03,WSW,248,2.0,3.0,31,0.00,CLR,,0.02,WeatherDisplay:10.37,2013-08-26 22:41:00,
2013-08-26 15:51:00,95.7,59.3,30.02,WSW,248,1.0,3.0,30,0.00,CLR,,0.02,WeatherDisplay:10.37,2013-08-26 22:51:00,
2013-08-26 16:00:00,95.3,59.9,30.02,WSW,248,12.0,14.0,31,0.00,CLR,,0.02,WeatherDisplay:10.37,2013-08-26 23:00:00,
2013-08-26 16:05:00,95.3,59.9,30.02,WSW,248,0.0,0.0,31,0.00,CLR,,0.02,WeatherDisplay:10.37,2013-08-26 23:05:00,
2013-08-26 16:11:00,95.2,59.8,30.02,WSW,248,0.0,13.0,31,0.00,CLR,,0.02,WeatherDisplay:10.37,2013-08-26 23:11:00,
2013-08-26 16:21:00,94.8,59.5,30.01,WSW,248,6.0,7.0,31,0.00,CLR,,0.02,WeatherDisplay:10.37,2013-08-26 23:21:00,
2013-08-26 16:31:00,94.5,60.1,30.01,SW,232,12.0,15.0,32,0.00,CLR,,0.02,WeatherDisplay:10.37,2013-08-26 23:31:00,
2013-08-26 16:41:00,93.7,59.4,30.00,ESE,117,5.0,7.0,32,0.00,CLR,,0.02,WeatherDisplay:10.37,2013-08-26 23:41:00,
2013-08-26 16:51:00,92.9,58.7,30.01,WSW,248,5.0,12.0,32,0.00,CLR,,0.02,WeatherDisplay:10.37,2013-08-26 23:51:00,
2013-08-26 17:00:00,92.2,58.1,30.00,WSW,248,8.0,8.0,32,0.00,CLR,,0.02,WeatherDisplay:10.37,2013-08-27 00:00:00,
2013-08-26 17:05:00,91.8,57.7,30.01,WSW,248,3.0,7.0,32,0.00,CLR,,0.02,WeatherDisplay:10.37,2013-08-27 00:05:00,
2013-08-26 17:11:00,91.6,58.4,30.01,SE,127,5.0,14.0,33,0.00,CLR,,0.02,WeatherDisplay:10.37,2013-08-27 00:11:00,
2013-08-26 17:21:00,90.3,57.3,30.01,East,101,0.0,0.0,33,0.00,CLR,,0.02,WeatherDisplay:10.37,2013-08-27 00:21:00,
2013-08-26 17:31:00,89.4,57.4,30.01,East,83,6.0,7.0,34,0.00,CLR,,0.02,WeatherDisplay:10.37,2013-08-27 00:31:00,
2013-08-26 17:41:00,88.5,56.6,30.02,East,86,2.0,2.0,34,0.00,CLR,,0.02,WeatherDisplay:10.37,2013-08-27 00:41:00,
2013-08-26 17:51:00,87.6,56.6,30.02,East,101,2.0,5.0,35,0.00,CLR,,0.02,WeatherDisplay:10.37,2013-08-27 00:51:00,
2013-08-26 18:00:00,87.1,56.2,30.02,East,96,0.0,2.0,35,0.00,CLR,,0.02,WeatherDisplay:10.37,2013-08-27 01:00:00,
2013-08-26 18:05:00,86.9,56.0,30.02,ESE,107,0.0,0.0,35,0.00,CLR,,0.02,WeatherDisplay:10.37,2013-08-27 01:05:00,
2013-08-26 18:11:00,86.7,56.5,30.02,ESE,111,0.0,0.0,36,0.00,CLR,,0.02,WeatherDisplay:10.37,2013-08-27 01:11:00,
2013-08-26 18:21:00,85.8,55.8,30.02,SE,125,0.0,0.0,36,0.00,CLR,,0.02,WeatherDisplay:10.37,2013-08-27 01:21:00,
2013-08-26 18:31:00,85.5,56.2,30.02,ESE,112,0.0,0.0,37,0.00,CLR,,0.02,WeatherDisplay:10.37,2013-08-27 01:31:00,
2013-08-26 18:41:00,84.7,56.3,30.03,ESE,112,0.0,0.0,38,0.00,CLR,,0.02,WeatherDisplay:10.37,2013-08-27 01:41:00,
2013-08-26 18:51:00,84.4,56.0,30.03,ESE,112,0.0,0.0,38,0.00,CLR,,0.02,WeatherDisplay:10.37,2013-08-27 01:51:00,
2013-08-26 19:00:00,83.7,56.8,30.03,ESE,116,0.0,0.0,40,0.00,CLR,,0.02,WeatherDisplay:10.37,2013-08-27 02:00:00,
2013-08-26 19:05:00,83.3,56.5,30.03,SE,128,0.0,0.0,40,0.00,CLR,,0.02,WeatherDisplay:10.37,2013-08-27 02:05:00,
2013-08-26 19:11:00,83.1,56.3,30.03,SE,135,0.0,0.0,40,0.00,CLR,,0.02,WeatherDisplay:10.37,2013-08-27 02:11:00,
2013-08-26 19:21:00,82.6,56.5,30.03,SE,135,0.0,0.0,41,0.00,CLR,,0.02,WeatherDisplay:10.37,2013-08-27 02:21:00,
2013-08-26 19:31:00,81.8,56.5,30.03,SE,135,0.0,0.0,42,0.00,CLR,,0.02,WeatherDisplay:10.37,2013-08-27 02:31:00,
2013-08-26 19:41:00,81.3,57.9,30.03,SE,135,0.0,0.0,45,0.00,CLR,,0.02,WeatherDisplay:10.37,2013-08-27 02:41:00,
2013-08-26 19:51:00,80.4,58.3,30.03,SE,135,0.0,0.0,47,0.00,CLR,,0.02,WeatherDisplay:10.37,2013-08-27 02:51:00,
2013-08-26 20:00:00,79.5,58.1,30.03,SE,135,0.0,0.0,48,0.00,CLR,,0.02,WeatherDisplay:10.37,2013-08-27 03:00:00,
2013-08-26 20:05:00,79.4,58.0,30.03,SE,135,0.0,0.0,48,0.00,CLR,,0.02,WeatherDisplay:10.37,2013-08-27 03:05:00,
2013-08-26 20:11:00,79.2,58.4,30.04,SE,135,0.0,0.0,49,0.00,CLR,,0.02,WeatherDisplay:10.37,2013-08-27 03:11:00,
2013-08-26 20:21:00,78.6,57.9,30.04,SE,135,0.0,0.0,49,0.00,CLR,,0.02,WeatherDisplay:10.37,2013-08-27 03:21:00,
2013-08-26 20:31:00,78.3,58.1,30.04,SE,135,0.0,0.0,50,0.00,CLR,,0.02,WeatherDisplay:10.37,2013-08-27 03:31:00,
2013-08-26 20:41:00,77.7,57.6,30.04,SE,135,0.0,0.0,50,0.00,CLR,,0.02,WeatherDisplay:10.37,2013-08-27 03:41:00,
2013-08-26 20:51:00,77.5,57.4,30.05,SE,135,0.0,0.0,50,0.00,CLR,,0.02,WeatherDisplay:10.37,2013-08-27 03:51:00,
2013-08-26 21:00:00,77.1,57.6,30.05,SE,135,0.0,0.0,51,0.00,CLR,,0.02,WeatherDisplay:10.37,2013-08-27 04:00:00,
2013-08-26 21:05:00,76.8,57.9,30.05,SE,135,0.0,0.0,52,0.00,CLR,,0.02,WeatherDisplay:10.37,2013-08-27 04:05:00,
2013-08-26 21:11:00,76.6,57.7,30.05,SE,135,0.0,0.0,52,0.00,CLR,,0.02,WeatherDisplay:10.37,2013-08-27 04:11:00,
2013-08-26 21:15:00,76.3,57.9,30.05,SE,135,0.0,0.0,53,0.00,CLR,,0.02,WeatherDisplay:10.37,2013-08-27 04:15:00,
2013-08-26 21:21:00,76.1,57.7,30.05,SE,135,0.0,0.0,53,0.00,CLR,,0.02,WeatherDisplay:10.37,2013-08-27 04:21:00,
2013-08-26 21:25:00,75.9,58.1,30.05,SE,135,0.0,0.0,54,0.00,CLR,,0.02,WeatherDisplay:10.37,2013-08-27 04:25:00,
2013-08-26 21:31:00,75.6,57.2,30.05,SE,135,0.0,0.0,53,0.00,CLR,,0.02,WeatherDisplay:10.37,2013-08-27 04:31:00,
2013-08-26 21:41:00,75.2,56.9,30.05,SE,135,0.0,0.0,53,0.00,CLR,,0.02,WeatherDisplay:10.37,2013-08-27 04:41:00,
2013-08-26 21:51:00,74.8,56.6,30.05,SE,135,0.0,0.0,53,0.00,CLR,,0.02,WeatherDisplay:10.37,2013-08-27 04:51:00,
2013-08-26 22:00:00,74.5,56.2,30.06,SE,135,0.0,0.0,53,0.00,CLR,,0.02,WeatherDisplay:10.37,2013-08-27 05:00:00,
2013-08-26 22:05:00,74.5,56.2,30.05,SE,135,0.0,0.0,53,0.00,CLR,,0.02,WeatherDisplay:10.37,2013-08-27 05:05:00,
2013-08-26 22:11:00,74.5,56.2,30.06,SE,135,0.0,0.0,53,0.00,CLR,,0.02,WeatherDisplay:10.37,2013-08-27 05:11:00,
2013-08-26 22:21:00,74.3,56.1,30.05,SE,135,0.0,0.0,53,0.00,CLR,,0.02,WeatherDisplay:10.37,2013-08-27 05:21:00,
2013-08-26 22:31:00,74.1,56.4,30.06,SE,135,0.0,0.0,54,0.00,CLR,,0.02,WeatherDisplay:10.37,2013-08-27 05:31:00,
2013-08-26 22:41:00,73.9,56.2,30.05,SE,135,0.0,0.0,54,0.00,CLR,,0.02,WeatherDisplay:10.37,2013-08-27 05:41:00,
2013-08-26 22:51:00,73.8,56.1,30.05,SE,135,0.0,0.0,54,0.00,CLR,,0.02,WeatherDisplay:10.37,2013-08-27 05:51:00,
2013-08-26 23:00:00,73.6,56.4,30.05,SE,135,0.0,0.0,55,0.00,CLR,,0.02,WeatherDisplay:10.37,2013-08-27 06:00:00,
2013-08-26 23:05:00,73.4,56.2,30.05,SE,135,0.0,0.0,55,0.00,CLR,,0.02,WeatherDisplay:10.37,2013-08-27 06:05:00,
2013-08-26 23:11:00,73.2,56.6,30.05,SE,135,0.0,0.0,56,0.00,CLR,,0.02,WeatherDisplay:10.37,2013-08-27 06:11:00,
2013-08-26 23:21:00,73.0,56.9,30.05,SE,135,0.0,0.0,57,0.00,CLR,,0.02,WeatherDisplay:10.37,2013-08-27 06:21:00,
2013-08-26 23:31:00,72.7,56.6,30.06,SE,135,0.0,0.0,57,0.00,CLR,,0.02,WeatherDisplay:10.37,2013-08-27 06:31:00,
2013-08-26 23:41:00,72.5,56.4,30.05,SE,135,0.0,0.0,57,0.00,CLR,,0.02,WeatherDisplay:10.37,2013-08-27 06:41:00,
2013-08-26 23:51:00,72.3,56.7,30.05,SE,135,0.0,0.0,58,0.00,CLR,,0.02,WeatherDisplay:10.37,2013-08-27 06:51:00,